MIRATA

导读

MIRATA(即MiRaTA)是美国于2017年11月18日发射的一颗立方体卫星(CubeSat)。该卫星任务由麻省理工学院等多家机构联合推进,核心目标是验证通过GPS无线电掩星技术对星载辐射计进行校准的方案,旨在提升大气温湿度探测等气象观测领域的数据精度,为小型卫星遥感观测技术发展提供试验支撑。

基本信息
目录编号:
43015
目录名称:
MIRATA
国际标识:
2017-073C
轨道中心:
EARTH
卫星名称:
MIRATA
卫星全名:
--
卫星状态:
已陨落 最后检测时间 2025-10-23
发射日期:
2017-11-18 UTC
国别 :
美国 (US)
星等 :
--
轨道信息
数据来源 国际轨道数据
星历时间: 2025-10-23T16:42:41+0800
轨道信息已过期263天
半长轴: 6553.254km
偏心率: 0.0009154
轨道倾角: 97.490°
近地点辐角 255.275°
升交点赤经 200.231°
平近点角 104.753°
近地点: 169.12km
远地点: 181.118km
周期: 87.992分钟
每日圈数: 16.365049
详细信息
使用方式:
暂无